GFSWCAN_850_thetae_132.txt.gz
Theta_e
322 320 316 314 312 311 313 314 313 315 317 317 317 317 318 318 317 315 316 322 325 329 327 322 321 320 320 318 313 317 318 319 319 317 319 318 319 318 319 320 320 317 316 317 318 322 329 326 328 328 325 328 335 336
321 317 314 312 312 313 313 313 315 318 318 318 317 318 318 318 318 314 316 324 325 325 326 322 320 320 319 319 318 317 318 319 321 316 317 318 320 316 314 317 317 318 315 316 317 320 323 325 326 325 325 326 331 336
319 315 312 311 312 312 313 313 317 318 318 318 318 318 318 318 318 313 313 321 325 326 327 326 320 319 318 318 317 316 324 324 323 321 319 315 318 314 316 316 319 320 321 317 319 323 324 324 324 324 325 326 328 333
315 313 311 311 311 312 313 315 318 318 318 317 318 318 318 318 318 313 313 323 323 326 328 322 323 319 319 320 318 318 323 323 322 319 318 311 315 317 315 316 315 319 319 316 320 322 322 322 323 324 322 326 332 333
315 311 311 311 311 312 313 316 318 317 317 316 316 317 318 318 318 311 313 321 321 324 326 323 322 322 322 319 318 317 318 319 319 317 314 313 319 319 317 311 312 319 316 315 316 321 321 321 320 322 322 324 329 331
315 310 310 311 311 312 313 316 317 316 317 316 316 316 318 318 315 310 318 321 324 325 327 322 322 319 319 319 318 318 319 320 320 320 319 324 323 321 316 312 319 322 321 322 323 323 323 322 322 321 323 325 328 330
309 309 310 311 312 312 314 316 315 316 316 316 317 318 318 317 310 315 323 320 322 323 325 321 319 319 319 319 319 318 319 319 319 319 320 321 323 321 312 313 317 322 322 322 322 321 320 322 322 321 322 321 328 329
308 309 310 311 312 313 314 316 313 316 316 316 318 318 317 310 311 314 320 319 321 324 322 316 321 321 321 321 320 320 320 318 318 318 318 321 322 321 317 319 321 321 323 323 322 322 322 322 320 318 322 323 327 325
308 308 310 311 311 313 314 315 312 316 316 317 316 311 309 310 314 314 318 320 316 323 324 319 321 323 322 322 321 322 320 318 320 315 316 319 315 314 317 321 320 321 324 323 323 322 322 321 323 323 323 322 322 326
308 308 311 311 311 312 314 314 312 313 316 310 309 311 312 311 316 316 318 316 314 321 324 325 321 320 322 321 321 323 321 315 319 318 321 315 315 319 320 320 319 320 321 321 322 321 321 323 323 323 323 321 321 325
308 309 311 311 311 312 313 313 311 308 308 313 319 320 321 313 318 317 318 316 317 318 319 325 325 322 323 320 318 322 319 318 320 318 317 317 318 319 321 320 320 318 320 320 321 321 321 320 322 321 321 321 322 322
308 309 311 310 310 312 313 313 310 309 314 318 319 320 319 319 320 317 317 315 316 316 319 319 320 323 324 323 322 323 321 318 321 321 320 319 315 323 322 321 320 317 319 319 319 320 321 321 320 320 320 320 320 321
309 311 311 309 310 311 312 313 311 311 315 318 318 319 317 316 314 318 318 318 318 320 319 317 316 321 321 324 324 319 321 321 321 321 320 317 324 323 321 320 321 319 319 317 318 319 320 319 318 319 319 319 318 318
311 311 310 308 310 311 312 313 311 310 314 315 316 313 318 316 316 316 315 316 318 320 320 320 316 323 323 320 318 324 321 320 323 320 321 319 322 321 321 320 321 320 319 318 318 318 318 317 316 317 317 316 316 316
311 311 310 310 310 312 313 313 311 310 314 314 315 315 317 317 317 317 318 319 320 320 319 322 321 323 318 319 318 321 324 323 323 321 318 323 322 320 320 320 321 320 318 318 318 317 316 315 316 316 315 316 316 316
310 310 310 310 311 313 312 311 311 310 313 315 315 317 317 317 318 319 320 321 321 320 321 322 321 320 321 320 322 323 323 324 320 317 323 325 322 321 320 321 321 320 319 318 318 317 316 315 316 316 316 317 316 315
309 309 309 310 311 313 311 311 310 311 312 314 315 315 315 315 317 319 318 319 320 320 322 322 323 322 320 321 322 320 320 317 323 326 327 325 322 321 322 322 321 320 319 319 318 318 316 316 316 316 317 317 317 317
308 310 310 310 311 311 311 310 311 312 313 312 315 315 315 317 318 317 318 317 317 319 320 322 321 323 323 324 321 319 324 322 326 327 325 322 322 323 323 323 321 321 321 321 321 321 320 318 317 317 318 318 317 317
309 310 311 310 310 310 310 311 311 312 312 312 312 313 314 315 317 317 317 317 316 318 318 320 323 322 322 327 325 327 328 328 327 326 324 323 324 324 324 323 323 323 324 324 323 321 321 321 319 318 317 317 317 314
310 310 310 309 310 311 311 311 310 311 312 314 314 314 314 316 316 317 317 318 318 319 320 321 323 322 324 326 326 327 328 328 328 327 327 327 326 325 321 326 327 325 323 321 320 319 318 317 317 315 313 315 312 312
308 308 309 308 310 310 311 312 312 312 315 315 316 315 316 316 316 316 315 316 318 318 319 319 320 321 323 323 323 323 323 323 323 323 325 325 326 324 323 323 322 322 319 318 318 317 316 315 314 313 312 311 312 312
308 309 310 310 310 311 312 313 314 316 317 317 319 319 319 318 317 317 317 318 319 319 318 318 319 319 319 321 322 322 322 322 322 321 322 325 322 323 323 322 321 319 316 316 316 315 313 312 311 310 310 311 311 311
309 310 311 310 310 312 312 313 315 317 317 319 320 319 319 320 320 320 321 320 320 319 319 319 321 323 321 322 322 322 321 321 322 322 323 322 322 323 323 322 321 318 315 315 314 312 312 311 311 311 309 309 310 310
309 311 312 313 312 312 315 317 317 318 319 318 319 321 321 321 322 321 320 321 321 321 322 322 323 325 324 324 323 322 323 323 321 323 325 324 323 323 323 321 319 317 313 312 312 313 313 311 310 310 309 309 309 309
311 311 312 312 315 316 318 317 318 318 321 319 321 321 321 320 321 323 322 322 322 322 321 321 323 324 323 322 323 322 324 323 322 323 323 321 321 320 321 319 318 317 313 313 313 314 313 310 309 309 309 309 309 309
309 312 311 316 317 317 318 320 320 320 320 321 321 320 320 320 322 323 322 322 323 323 322 320 320 322 323 324 323 322 322 322 324 323 322 320 320 320 319 318 316 315 314 314 314 315 311 311 310 310 309 308 309 309
310 313 315 315 316 317 318 319 319 320 322 323 321 322 322 324 325 322 319 320 320 322 321 323 320 319 318 323 323 323 323 320 319 319 319 321 321 321 319 316 314 315 316 316 315 314 312 311 312 310 309 309 309 309
314 315 317 317 317 318 319 318 320 322 323 322 321 323 324 322 321 322 320 320 321 321 321 320 322 323 323 323 323 321 320 319 318 319 318 317 317 317 316 315 315 316 316 315 314 313 313 312 312 311 311 311 311 311
314 315 316 316 317 318 320 321 322 319 321 323 322 323 322 320 320 321 321 319 318 318 318 319 323 323 322 320 319 320 319 318 318 320 319 318 318 318 318 317 316 316 315 315 315 314 314 313 312 312 312 312 312 312
313 313 315 317 318 320 321 319 321 321 321 321 322 321 321 321 321 320 320 319 319 319 320 320 320 319 320 319 319 319 318 317 317 318 318 317 317 317 317 316 316 314 314 315 315 315 314 314 313 312 312 311 311 311
315 316 317 317 318 320 319 319 320 321 321 320 321 321 322 322 320 319 319 319 318 319 319 319 320 320 319 318 317 316 317 316 314 315 316 316 315 316 315 315 315 315 315 315 314 313 313 313 311 312 310 310 309 308
316 316 317 319 320 320 320 320 320 321 321 321 321 322 321 321 320 319 318 319 319 318 319 319 317 317 318 319 318 316 314 314 314 314 314 315 315 314 313 313 313 311 311 312 313 314 313 312 311 310 310 308 308 308
314 316 317 318 319 320 321 321 322 321 320 318 319 320 320 320 320 319 318 317 315 316 316 315 315 315 314 313 314 315 314 314 313 313 312 313 312 312 312 311 311 311 310 310 310 312 313 312 310 310 309 308 308 309

GFSWCAN_850_thetae_138.txt.gz
Theta_e
322 323 322 321 320 317 314 311 312 312 313 315 317 317 317 317 317 317 315 313 319 320 322 325 324 318 318 316 314 315 316 317 313 315 316 316 315 315 317 316 317 314 316 317 316 322 322 324 325 325 320 326 329 333
320 320 321 320 319 315 312 311 311 312 313 316 317 317 317 317 317 317 316 313 317 317 322 323 322 320 318 317 318 316 317 317 318 313 313 313 316 311 311 317 313 315 311 315 315 315 315 324 324 324 327 331 331 332
315 316 318 319 315 313 311 311 311 312 313 316 316 316 317 316 317 317 316 316 319 319 323 322 322 317 317 318 320 318 319 320 320 318 315 311 316 310 315 314 316 316 315 317 318 318 323 323 323 325 326 329 331 332
314 314 316 316 313 311 311 311 311 312 313 316 315 317 316 316 316 316 317 313 316 321 322 325 322 318 318 319 321 320 319 321 321 319 313 307 311 312 310 312 313 314 314 315 315 317 322 324 323 324 324 326 329 331
316 315 313 316 314 311 311 311 311 312 314 315 314 317 315 316 316 316 317 314 317 319 322 326 322 318 318 318 320 318 320 322 319 316 311 311 311 313 309 308 310 316 313 314 314 317 321 318 321 323 323 327 329 331
313 314 314 316 314 310 310 311 311 313 315 314 314 316 315 316 316 316 317 315 313 315 321 321 320 318 317 318 318 317 320 320 319 318 314 314 320 316 312 311 313 318 318 318 318 318 320 321 320 320 322 327 330 328
312 314 313 312 310 309 310 311 311 313 314 313 316 316 315 315 315 314 314 318 312 313 321 323 317 317 317 318 318 318 318 319 318 318 316 320 318 316 310 314 317 319 320 320 319 321 319 321 321 320 321 322 324 328
313 312 311 310 308 309 310 311 312 313 313 314 316 316 316 316 316 315 317 319 318 318 321 318 315 317 317 319 318 317 317 317 316 315 316 317 318 315 315 315 317 318 320 321 321 320 320 320 320 320 321 323 327 328
311 310 309 308 308 309 310 311 312 314 312 314 316 312 310 311 311 312 314 318 318 319 321 316 319 317 318 319 319 319 318 314 316 311 311 317 312 314 316 319 319 317 319 320 321 320 322 322 320 320 321 321 326 326
308 308 308 308 308 309 310 311 312 313 310 311 308 309 309 310 314 317 318 317 315 318 321 322 319 319 319 318 318 318 317 314 317 314 314 312 311 318 320 319 319 319 319 320 322 320 321 321 320 319 321 322 324 323
307 307 307 307 308 310 310 311 313 311 310 315 318 319 320 317 317 317 316 314 315 315 320 323 322 318 319 318 317 319 315 313 318 316 317 315 314 315 319 319 319 318 318 320 321 320 321 320 321 321 322 322 322 322
307 307 307 308 309 310 310 311 313 310 314 316 318 319 317 318 318 315 315 313 313 314 314 320 322 321 320 320 320 318 318 316 321 315 317 317 314 320 320 319 319 318 319 320 321 321 321 320 320 322 323 322 322 321
307 307 308 308 309 310 310 311 313 310 316 318 317 318 316 316 313 316 317 316 313 315 315 317 318 321 320 322 319 317 319 319 316 318 318 316 320 320 320 319 319 319 318 320 320 321 321 320 320 320 322 321 321 321
308 308 309 309 310 309 310 311 313 310 313 316 315 314 315 316 314 314 313 313 316 317 318 316 316 318 319 319 318 321 318 318 320 319 321 317 322 321 321 320 319 319 318 319 319 319 319 319 320 320 320 320 320 321
308 309 310 310 310 310 310 312 313 310 313 315 315 314 317 315 315 316 316 316 318 318 320 315 316 319 316 318 317 318 320 322 320 320 317 320 321 320 322 321 319 319 318 317 318 317 317 318 320 320 320 320 321 320
309 310 310 310 310 310 312 312 312 310 313 314 315 314 315 314 316 316 317 317 319 320 320 320 318 318 319 317 320 321 322 322 320 317 321 320 321 320 322 319 319 318 317 319 318 317 318 318 319 319 320 319 318 316
309 309 310 310 311 312 311 311 310 310 312 312 313 315 315 315 315 315 316 317 318 320 319 319 321 323 318 317 319 318 320 319 320 320 321 322 323 322 321 320 319 320 319 319 317 317 317 317 317 318 317 316 315 315
308 309 309 309 310 311 311 311 311 311 311 311 311 312 314 314 315 316 317 318 317 318 319 319 320 321 322 323 318 318 320 321 319 320 321 321 321 324 321 321 319 320 320 319 319 318 317 316 316 316 315 315 315 315
307 308 309 310 310 310 310 311 311 312 312 312 312 312 311 312 313 314 315 316 316 317 319 319 320 319 319 320 322 321 321 323 323 323 321 320 321 322 321 319 320 320 320 320 319 318 317 316 316 315 315 315 315 315
307 309 310 310 309 310 311 311 310 311 311 311 311 312 311 311 311 312 312 312 312 317 317 317 316 319 320 320 319 319 319 322 323 325 325 324 321 320 320 320 321 321 321 320 319 319 318 317 315 315 315 315 315 315
307 309 309 308 309 309 310 311 312 311 311 312 314 314 313 313 313 313 313 313 315 317 317 317 317 316 318 319 321 320 319 322 324 325 323 322 322 322 322 322 323 321 322 322 323 323 322 321 321 318 316 316 315 315
307 307 308 309 308 310 311 310 311 313 314 314 315 316 317 315 314 314 314 317 317 317 317 317 317 317 317 318 319 320 321 320 321 324 324 324 323 323 323 322 323 322 323 324 321 319 318 318 318 318 317 315 315 316
308 309 308 310 310 310 311 312 313 314 315 316 318 319 318 318 317 315 315 315 315 315 316 315 316 317 316 317 318 319 320 320 321 321 322 322 323 324 324 324 323 323 322 319 318 317 317 317 315 315 315 314 313 311
308 310 310 311 310 310 312 313 313 314 315 315 316 319 319 319 317 318 319 319 319 318 318 317 316 316 317 317 318 318 318 319 320 320 321 321 321 321 322 323 322 322 321 318 316 315 315 314 313 312 311 311 311 311
309 310 310 310 313 313 314 314 315 315 318 317 317 317 317 318 318 317 319 319 321 322 321 320 318 318 318 319 321 321 321 320 320 321 321 321 322 323 324 322 322 322 319 316 316 313 312 311 311 310 310 310 309 309
309 311 310 313 315 315 317 319 319 319 318 319 318 318 318 318 320 321 320 321 319 320 322 322 322 322 322 322 322 321 322 322 322 322 321 320 321 322 322 322 322 320 316 315 314 311 310 311 311 310 310 309 308 309
310 311 312 312 313 315 316 316 316 317 319 322 322 321 320 321 319 318 319 322 321 321 321 321 320 321 322 322 321 322 321 321 322 322 322 321 321 320 321 322 322 318 314 313 312 310 311 314 313 311 310 309 309 309
310 312 313 315 315 315 315 316 317 320 320 320 321 322 322 322 320 321 321 321 321 321 322 322 322 321 321 321 320 320 319 319 320 320 320 319 319 319 320 319 318 316 312 311 311 311 312 313 314 314 313 310 309 309
311 312 314 314 314 314 316 319 320 320 320 321 321 322 321 320 320 321 320 318 318 321 321 322 322 321 320 320 318 317 315 314 315 317 319 320 320 319 317 315 314 312 311 312 313 314 315 314 314 314 313 311 309 310
311 312 314 313 315 319 318 318 318 317 320 321 320 320 321 321 320 319 319 319 321 322 320 320 321 321 320 320 319 318 317 317 316 314 315 315 316 315 314 313 313 313 315 315 315 315 314 314 313 313 313 312 310 310
312 313 313 314 318 319 318 319 320 321 320 320 321 320 320 319 319 319 319 319 318 318 319 319 318 318 317 317 317 317 317 317 317 317 316 317 317 316 316 316 315 315 315 314 314 314 314 313 313 312 312 312 311 311
313 314 315 319 319 320 319 319 319 319 319 319 319 319 318 319 319 319 319 318 318 318 318 317 316 316 317 317 317 316 314 314 313 315 316 316 315 314 312 313 314 314 314 314 314 314 314 314 313 312 312 311 311 310
313 314 315 317 318 319 319 319 319 320 318 318 318 318 319 319 318 318 317 318 318 317 318 318 318 317 317 316 316 314 313 313 313 314 314 314 314 314 314 314 314 315 315 314 314 314 314 313 312 312 312 311 310 309

GFSWCAN_850_thetae_141.txt.gz
Theta_e
320 320 320 321 321 321 320 316 313 311 311 312 314 316 316 317 317 317 316 314 317 317 321 323 326 319 318 317 322 317 320 321 321 324 324 323 323 323 324 322 322 323 324 324 325 327 324 326 327 328 328 328 334 337
319 319 319 319 319 319 317 313 311 311 311 312 315 316 316 317 317 317 316 314 313 315 318 322 323 322 323 321 317 318 320 320 320 323 321 322 323 319 323 325 319 323 321 323 324 324 321 325 327 324 327 331 332 334
316 315 314 315 317 317 314 313 311 311 311 312 314 315 315 317 316 316 316 314 315 316 319 318 321 321 316 317 316 320 317 319 319 319 320 321 326 320 324 323 323 322 318 325 326 323 324 325 323 325 326 327 330 334
315 315 314 314 315 316 313 311 311 311 311 312 314 315 315 317 316 316 316 316 315 317 322 323 322 322 317 317 319 318 319 319 320 318 317 320 321 316 321 321 323 321 321 325 326 322 321 324 324 324 326 325 328 331
314 315 315 314 313 315 314 311 311 311 311 313 314 314 315 316 315 315 315 317 313 317 321 324 324 319 317 318 320 320 318 320 319 318 319 320 315 319 315 316 320 318 324 323 322 324 325 323 322 323 324 325 328 331
311 313 313 314 314 315 314 310 310 310 311 313 314 314 316 315 314 313 316 317 314 316 315 326 322 319 317 317 318 320 321 321 319 319 317 314 316 320 321 323 321 318 319 319 322 317 320 319 319 320 322 324 329 331
309 310 310 313 313 312 310 309 310 310 312 313 313 315 315 315 314 314 312 315 315 313 317 324 324 317 317 317 317 318 318 318 318 317 319 322 320 319 322 325 323 317 318 318 318 318 321 320 321 320 321 322 328 327
309 309 312 312 311 310 308 309 310 311 312 313 313 315 315 314 312 315 314 313 314 313 318 325 321 317 316 318 318 317 317 317 316 316 316 320 318 318 326 322 320 318 317 318 318 320 320 319 320 320 320 321 322 328
309 310 312 310 309 308 308 310 310 312 313 311 313 313 310 311 313 313 314 317 311 317 322 321 322 322 317 317 318 317 316 319 315 318 317 320 322 329 325 323 319 318 319 321 320 319 319 319 319 320 320 322 327 326
311 310 309 308 308 308 309 310 311 313 312 310 308 308 309 309 312 316 316 316 317 317 317 324 320 322 319 319 320 321 317 322 325 322 314 320 322 319 318 319 319 320 318 321 322 322 322 321 320 320 321 322 327 326
308 308 307 307 307 308 309 310 311 312 310 314 316 318 319 318 317 317 315 317 317 318 320 323 322 323 318 322 323 320 323 321 324 323 322 323 323 321 319 318 318 318 318 318 319 319 320 320 320 320 321 321 324 324
307 307 307 307 307 308 310 310 311 311 313 314 317 318 317 318 317 316 318 315 316 318 316 322 324 320 319 319 323 320 324 320 325 318 323 326 324 320 319 319 318 318 318 318 319 320 320 320 320 320 321 322 322 322
306 307 307 307 308 309 310 310 311 311 314 317 317 317 317 316 318 319 318 319 317 317 316 318 323 322 320 320 322 325 325 324 319 323 327 325 323 320 320 320 319 318 318 318 320 321 321 321 320 321 322 322 321 321
307 308 308 308 309 309 309 310 312 311 313 316 315 313 316 317 317 319 317 318 317 316 318 316 319 321 320 323 323 324 324 321 324 326 325 325 321 320 320 320 318 318 318 319 320 320 321 321 320 320 322 322 322 321
308 309 309 309 309 309 309 310 312 311 312 314 315 316 317 316 316 316 316 316 317 317 319 316 317 320 320 323 323 323 322 324 325 326 324 320 320 320 320 320 319 319 318 318 319 320 319 319 319 320 320 320 321 321
309 309 310 310 310 310 310 311 312 310 312 314 315 316 316 316 317 316 317 317 318 318 319 319 321 321 322 321 323 324 322 324 323 322 320 320 320 320 320 321 320 319 318 318 317 318 317 317 318 319 320 320 321 321
309 309 310 310 310 311 311 311 311 310 311 313 314 314 314 314 316 316 316 317 317 318 324 322 323 323 322 322 322 322 323 323 321 321 319 319 321 322 320 321 319 319 318 317 318 317 317 318 319 319 320 320 320 317
308 308 309 310 310 311 311 310 311 311 312 312 312 312 313 314 315 315 316 316 317 318 320 322 321 323 322 324 323 322 323 322 321 321 321 320 322 323 321 321 318 318 318 319 318 317 317 317 317 317 318 318 317 316
307 308 308 310 310 311 311 311 311 312 313 313 312 311 311 312 312 313 314 315 315 317 317 320 322 322 322 323 322 322 320 319 319 319 319 322 322 321 321 321 319 319 319 319 319 318 318 317 317 317 317 316 316 315
307 307 308 310 310 310 311 311 310 311 311 312 311 311 311 312 312 312 312 313 313 314 318 321 322 322 320 318 318 319 319 319 320 318 321 323 323 322 321 320 320 319 319 319 319 319 318 317 317 316 316 316 316 315
307 309 309 309 310 309 310 311 312 311 311 312 313 313 313 312 312 313 312 312 313 314 316 317 318 316 317 317 317 317 320 320 319 320 322 323 321 319 319 318 319 319 320 320 320 319 318 318 317 316 315 316 315 315
307 308 309 308 308 309 311 310 310 311 312 313 313 314 316 316 316 315 314 314 314 314 315 315 316 317 317 316 317 317 320 321 320 320 323 322 321 320 321 321 322 323 322 322 321 321 322 323 321 319 316 315 315 315
307 307 308 308 309 310 310 311 312 313 315 316 318 319 319 319 317 314 316 316 316 315 315 315 315 314 316 316 316 316 317 318 320 320 322 323 323 322 322 322 322 322 323 322 323 321 319 318 318 318 318 316 315 315
308 309 310 310 310 310 311 312 312 313 315 317 319 320 321 320 315 318 319 319 317 318 319 319 318 316 315 316 316 316 316 318 320 320 319 320 321 321 322 323 323 323 323 322 319 317 317 317 317 317 315 315 315 315
309 309 310 310 312 311 314 315 316 317 318 319 319 320 321 319 323 322 322 320 321 319 321 321 320 318 316 316 316 317 317 318 318 318 319 319 321 321 321 322 323 322 321 319 317 316 316 314 313 314 314 313 312 310
307 310 310 313 314 315 316 319 319 319 319 320 320 320 318 321 321 321 322 320 320 320 320 321 320 319 318 318 318 320 321 320 320 320 320 321 321 321 322 322 321 320 321 318 316 314 314 313 311 311 311 310 310 310
309 312 312 311 312 314 315 317 317 318 319 321 321 322 321 318 319 320 319 318 321 321 321 321 320 321 321 321 321 321 321 321 321 322 321 321 321 321 321 321 321 321 320 316 315 311 310 310 310 310 310 309 309 308
311 312 314 315 314 314 316 317 319 320 320 316 320 321 323 321 322 320 321 321 321 321 321 321 320 320 321 321 321 321 321 321 321 321 320 320 320 321 321 321 321 318 315 314 314 310 310 313 313 313 312 310 310 309
311 312 313 314 314 314 317 318 320 320 319 320 321 320 320 320 321 321 319 320 321 321 321 321 321 320 319 319 318 316 315 316 318 320 320 319 318 318 318 319 317 314 312 311 310 310 311 311 311 313 314 313 313 310
311 311 313 314 315 318 318 318 318 318 318 320 319 320 320 319 319 320 321 320 320 320 321 321 320 318 317 316 316 316 316 316 317 318 318 318 316 314 312 312 311 311 311 311 312 313 315 314 314 313 313 313 312 310
311 311 313 315 317 316 316 319 320 320 320 320 320 319 319 319 321 321 320 320 319 318 319 320 320 319 317 318 318 318 318 317 316 316 317 316 315 314 313 313 313 314 315 315 315 315 314 313 313 313 313 313 312 311
311 312 316 316 317 319 319 319 319 319 319 319 318 318 318 318 319 319 319 318 317 316 316 317 318 317 317 316 315 314 314 315 314 316 317 316 316 315 314 313 313 313 313 313 314 313 314 314 313 312 312 312 312 311
312 313 316 317 318 320 319 320 320 319 318 319 318 319 318 319 319 317 318 318 318 318 318 317 317 316 315 315 313 313 313 313 313 313 313 315 314 314 314 314 314 314 315 315 314 314 314 313 312 312 312 312 311 311

GFSWCAN_850_thetae_144.txt.gz
Theta_e
322 321 319 320 320 320 320 320 318 314 311 311 312 314 315 316 317 317 315 315 316 320 321 324 327 326 322 322 324 323 324 323 322 322 321 323 322 324 325 326 325 325 325 324 326 325 326 329 329 333 333 334 339 341
320 318 318 319 319 318 318 318 315 312 311 311 311 313 315 315 317 316 314 315 314 315 319 320 320 324 323 324 323 322 325 324 322 323 323 323 323 325 325 325 325 325 325 326 326 329 329 329 331 330 333 333 338 338
316 316 315 314 314 316 317 317 315 314 314 313 311 313 314 314 316 316 315 316 315 316 317 318 320 323 322 322 324 322 322 325 324 324 323 324 323 324 324 324 324 326 323 323 325 326 328 329 329 330 331 334 336 338
315 315 315 314 313 314 316 315 312 312 313 312 312 313 314 314 316 315 314 315 315 318 322 322 323 324 319 316 321 320 321 321 323 323 322 323 322 323 322 326 326 326 326 325 325 326 327 328 328 329 330 330 333 337
311 311 313 315 314 314 313 315 312 311 311 311 312 313 313 314 315 314 313 314 315 317 323 323 324 324 318 318 318 318 322 322 322 322 323 323 322 322 323 324 323 325 325 326 322 324 323 323 325 326 327 329 332 335
312 310 311 312 313 313 314 315 312 310 310 311 312 313 313 315 315 313 314 315 316 314 319 326 326 322 318 321 322 322 322 322 322 323 323 322 322 322 322 321 321 322 323 324 323 324 324 324 324 324 324 325 330 334
310 309 309 310 311 313 313 312 310 310 310 311 313 312 313 315 315 313 316 315 316 314 319 324 326 321 319 320 320 321 321 322 323 323 322 323 323 321 321 322 321 322 322 324 324 324 325 323 322 324 324 329 333 334
309 308 308 309 312 312 311 309 309 310 311 312 312 311 314 313 313 314 316 314 315 315 318 328 327 321 318 320 321 320 322 321 321 322 321 321 323 321 322 320 321 320 323 324 323 323 324 324 324 324 325 328 333 332
307 307 308 310 312 310 309 308 309 310 311 312 310 311 309 310 313 314 312 314 314 316 324 326 327 325 319 322 322 321 321 323 320 321 321 322 322 331 323 322 323 324 323 324 323 323 323 324 324 325 325 326 327 331
307 307 310 310 309 309 308 308 310 311 312 310 309 307 311 311 314 315 315 314 315 318 319 324 324 325 321 322 323 323 322 324 325 323 320 321 322 321 320 322 324 324 323 323 325 324 323 323 323 323 323 324 325 328
309 310 310 308 307 308 308 309 310 312 310 313 314 317 316 317 317 319 319 320 320 321 322 323 325 325 322 325 325 324 325 325 326 325 324 325 325 324 324 322 321 324 324 324 324 324 323 322 322 322 323 326 330 331
308 308 307 307 307 307 308 309 310 311 312 314 316 317 318 317 318 317 320 319 321 321 320 323 323 324 323 323 325 324 326 326 326 323 324 325 325 325 325 324 323 323 323 322 323 323 323 323 322 322 323 325 328 329
307 307 306 307 307 308 309 310 310 311 312 315 317 317 319 318 320 318 317 320 321 319 319 322 325 325 324 324 325 327 325 326 324 326 327 326 323 326 326 325 324 323 323 322 323 323 323 323 322 323 324 325 326 328
306 307 307 307 308 308 309 310 310 312 313 316 317 314 317 318 318 319 319 319 319 319 321 319 322 325 324 325 324 325 326 325 327 327 326 324 324 325 328 326 324 323 322 323 323 323 324 324 323 324 325 326 326 328
307 308 308 308 308 309 309 309 311 311 312 317 317 318 318 317 319 318 319 319 320 320 321 321 320 321 324 326 324 325 325 327 326 325 324 323 324 324 328 325 324 323 322 322 323 323 324 324 324 324 326 327 327 328
308 308 309 309 309 309 309 310 311 311 313 316 316 318 318 319 319 319 319 319 320 321 322 322 322 321 321 322 324 325 324 324 324 324 322 322 327 329 328 327 325 323 322 322 323 323 324 324 324 325 321 326 328 329
308 309 309 309 310 310 311 311 311 313 314 315 316 316 317 317 318 319 319 319 320 320 322 319 320 321 321 321 321 321 323 323 324 325 325 326 327 329 327 327 326 324 323 323 323 323 323 323 323 323 324 326 327 328
308 308 309 310 310 311 311 311 313 314 314 314 315 314 315 315 315 316 318 317 320 321 320 321 321 322 321 320 321 321 323 325 325 325 324 323 321 322 324 326 326 324 321 322 322 321 318 318 321 324 326 326 325 324
308 308 309 309 310 311 311 312 312 314 314 314 314 314 314 313 314 315 316 318 316 318 319 321 322 322 322 320 321 322 323 323 324 323 324 326 321 321 320 321 324 324 323 318 319 320 320 318 321 323 324 323 321 320
307 307 308 309 310 311 312 313 312 313 313 314 314 313 314 314 314 314 314 314 316 318 318 320 321 321 322 321 322 321 321 323 324 322 322 324 327 322 321 321 324 323 321 320 320 320 321 321 321 322 321 320 319 319
308 308 309 309 310 310 311 312 313 311 313 312 313 313 313 313 313 316 315 314 315 317 318 317 318 320 322 323 323 323 320 322 324 324 323 325 327 325 323 321 323 322 321 321 320 320 320 320 320 320 319 319 319 319
307 308 309 308 309 310 311 311 313 313 311 312 312 313 315 317 317 318 317 316 315 315 315 315 316 317 319 320 321 321 320 320 320 320 319 323 325 325 324 323 322 322 322 322 322 321 320 319 319 320 318 319 318 318
307 308 308 309 309 311 311 313 313 313 314 316 317 317 318 319 320 318 319 318 318 318 317 316 316 317 318 318 318 319 321 319 319 320 321 323 324 325 325 325 325 325 325 322 322 322 322 321 321 321 320 318 317 315
307 309 309 310 309 311 312 313 312 314 316 318 320 322 322 322 318 318 321 321 318 319 319 320 319 318 319 320 319 319 320 319 318 319 320 322 322 322 322 322 322 322 323 323 322 322 320 319 318 318 318 317 317 316
309 309 310 310 311 312 314 316 317 318 320 320 321 321 323 322 324 324 323 322 321 321 322 322 323 322 322 320 319 320 318 318 319 320 320 319 319 323 321 321 321 321 322 322 319 319 318 317 318 318 317 316 316 315
308 310 310 312 313 314 317 319 319 319 320 321 321 321 321 321 321 323 322 320 318 322 323 323 324 322 321 320 320 318 318 319 319 319 319 319 320 321 321 321 321 321 321 320 319 317 317 316 316 316 316 315 315 314
310 311 313 311 312 314 315 316 318 319 320 322 320 321 319 319 321 321 318 319 320 321 322 320 321 321 321 321 321 321 321 321 322 322 320 320 321 324 323 322 321 321 320 319 318 316 315 315 314 313 312 312 312 312
311 312 315 316 316 315 316 318 319 320 319 316 317 320 322 322 322 320 321 321 321 321 321 320 321 321 321 320 320 322 323 322 322 322 321 321 321 321 322 322 321 320 318 318 316 314 312 312 311 311 311 311 311 310
312 314 314 315 315 315 317 319 319 319 319 319 318 321 322 321 320 322 320 321 322 322 323 321 320 319 318 319 319 320 320 320 321 321 321 321 320 321 321 320 320 318 316 316 313 313 313 314 315 314 314 314 313 312
313 312 313 315 317 318 318 317 318 317 318 319 319 319 320 322 321 321 322 321 321 322 321 321 318 316 317 318 317 318 318 318 317 317 316 316 317 318 318 316 316 316 315 313 313 312 311 311 312 314 315 316 315 314
312 312 314 316 317 316 316 318 319 317 319 319 320 321 321 320 321 321 320 319 319 320 319 319 319 318 317 316 317 317 317 317 318 316 315 315 315 315 315 314 314 314 315 315 316 316 316 315 315 315 315 314 314 314
313 315 315 314 315 315 317 319 319 320 320 320 320 320 319 319 318 318 320 319 316 317 317 317 317 317 317 316 316 317 317 317 318 318 316 316 315 315 315 314 315 315 315 315 316 316 315 315 314 314 314 314 314 313
314 312 313 315 317 319 320 321 321 321 320 320 320 320 320 319 319 319 319 319 319 317 316 316 316 316 315 315 314 314 313 313 314 315 316 315 314 315 315 315 316 316 315 314 314 314 315 315 314 314 314 314 314 313

GFSWCAN_850_thetae_147.txt.gz
Theta_e
322 322 322 322 320 319 319 320 320 319 317 312 311 311 313 314 315 317 319 319 319 321 321 324 327 330 329 325 327 325 326 325 326 325 323 325 323 326 324 326 329 330 331 328 327 327 330 329 329 335 335 335 335 339
320 320 321 320 318 318 319 318 318 317 313 311 311 312 313 314 314 317 318 318 318 319 319 320 323 325 327 329 328 326 326 326 326 326 324 324 324 324 325 326 325 325 326 328 328 332 331 330 334 332 333 332 336 339
320 318 317 317 315 314 316 317 316 316 315 314 314 312 312 313 314 316 315 316 318 319 319 318 318 321 322 323 324 328 325 326 326 325 326 325 324 325 326 325 327 325 325 324 325 325 328 330 331 330 330 332 333 335
317 316 315 315 314 313 313 316 315 313 313 314 314 313 313 313 313 316 315 314 316 320 321 321 319 322 326 323 323 325 325 326 326 324 324 326 325 324 323 326 327 328 328 324 326 328 327 327 328 328 328 328 329 334
315 314 313 313 315 315 314 313 314 312 311 311 311 312 312 313 314 316 315 314 314 319 325 324 326 324 325 321 320 324 323 325 325 324 325 326 324 325 324 324 323 324 326 326 326 327 327 325 325 326 326 326 327 330
312 311 311 311 312 313 313 313 314 313 311 310 311 311 313 313 316 315 314 316 314 315 320 324 323 326 322 322 323 322 323 324 324 324 325 326 326 324 324 325 323 322 324 324 325 325 326 325 324 325 325 325 327 329
313 312 310 309 310 311 312 313 313 311 310 310 311 312 312 313 314 314 317 316 315 315 320 320 325 326 323 323 325 325 324 324 324 324 325 325 326 323 325 325 324 323 322 324 325 326 325 325 323 324 324 324 327 329
311 310 309 308 309 310 312 312 310 309 310 310 311 312 311 313 313 314 316 315 314 318 320 325 327 325 323 322 324 324 324 324 324 325 325 325 326 325 326 323 323 322 322 323 325 324 323 325 323 324 324 325 327 329
308 308 308 308 308 311 311 310 309 309 310 311 312 310 310 310 314 317 316 314 314 318 322 322 326 326 323 323 322 324 324 327 325 326 325 325 326 332 326 325 323 323 323 324 325 324 324 325 325 325 324 325 329 329
305 306 307 308 310 310 309 309 309 309 310 312 310 312 312 313 313 315 315 318 317 318 321 325 323 326 324 323 325 325 324 326 328 326 324 325 325 322 323 325 323 323 324 324 324 324 324 324 325 325 324 324 325 329
305 307 308 309 310 308 308 308 309 310 311 313 314 316 316 312 316 320 322 321 319 321 319 321 323 325 323 325 325 324 326 325 327 327 327 326 325 324 323 324 323 323 324 324 324 325 324 324 324 324 324 324 324 326
307 308 308 308 308 307 307 308 309 311 315 316 316 317 317 318 319 321 322 321 323 323 323 322 320 325 324 324 327 326 326 327 327 325 327 329 326 324 325 325 325 323 323 323 324 325 325 324 324 323 323 324 325 328
306 306 307 307 307 307 308 309 310 311 313 314 316 317 319 318 322 320 321 322 322 321 322 322 324 322 325 325 326 328 328 328 326 327 329 326 325 326 326 326 326 325 324 322 323 324 325 324 324 324 324 325 328 329
305 306 306 307 307 308 308 309 310 311 312 316 318 319 320 320 321 320 320 320 320 321 321 321 323 325 325 325 327 328 328 328 329 328 326 326 325 327 327 327 326 326 325 322 322 324 325 325 324 324 325 325 326 328
306 307 307 308 308 308 309 309 310 311 314 317 318 324 320 318 319 320 320 321 321 320 321 321 321 324 326 326 326 327 327 328 328 327 326 325 326 326 327 327 326 326 325 323 323 324 325 325 325 325 325 326 327 328
307 308 309 308 309 309 308 309 310 312 315 317 318 319 318 319 320 319 319 320 320 321 320 320 322 322 323 324 325 326 326 328 326 325 323 325 332 332 331 329 327 326 325 324 324 324 325 326 325 325 326 327 327 328
307 309 308 309 309 309 310 311 313 315 316 317 316 315 316 317 319 319 319 320 320 321 323 319 320 323 321 322 323 323 324 325 323 324 327 331 332 332 332 331 329 327 326 324 324 324 325 326 326 326 327 328 328 330
309 309 309 309 310 311 311 312 314 315 316 315 316 316 315 316 316 316 316 318 321 323 322 322 323 323 324 322 322 323 322 324 326 326 326 328 330 331 330 330 330 328 326 325 325 325 326 326 325 326 327 328 328 330
308 308 309 310 310 311 314 314 315 315 315 315 315 315 315 315 315 316 316 318 320 320 322 322 322 323 322 322 322 322 323 324 324 325 325 327 328 328 330 329 330 328 326 326 326 325 325 325 325 325 326 327 327 327
308 308 309 309 310 312 314 314 314 314 315 315 315 315 315 316 316 315 315 316 317 320 319 321 322 322 322 323 323 322 323 323 324 323 323 322 325 328 325 328 328 327 327 326 325 324 324 324 323 326 326 326 325 324
307 308 308 310 311 313 313 314 315 315 314 316 316 315 315 316 316 316 316 317 316 317 318 319 318 318 320 322 323 324 323 322 322 323 324 325 325 327 327 327 327 326 325 325 324 323 324 323 323 324 324 323 322 321
309 308 309 309 309 312 313 313 314 314 314 314 312 313 315 317 318 318 318 318 318 317 317 317 318 319 319 320 323 324 323 323 323 323 323 323 324 325 326 326 325 325 324 323 322 323 323 323 323 323 322 321 321 320
308 308 310 311 312 312 311 313 315 314 314 315 315 316 317 318 320 320 320 320 319 318 318 319 319 318 318 319 320 320 322 323 322 321 323 323 322 325 327 326 324 323 323 323 323 323 323 322 321 322 321 320 320 320
308 309 311 312 312 311 312 315 314 315 317 318 321 322 323 323 322 322 323 322 321 320 318 319 319 321 319 319 319 320 320 320 322 321 322 321 323 323 324 326 326 326 326 326 325 325 325 323 322 322 322 322 321 318
308 309 310 310 311 312 314 316 318 319 321 321 322 322 325 324 324 325 325 325 323 323 325 325 324 323 323 322 322 321 321 322 321 321 323 321 321 322 322 323 324 325 325 324 323 322 321 320 320 321 321 321 320 317
310 311 312 313 314 314 317 319 320 321 321 322 323 323 322 323 323 324 323 321 324 323 325 323 324 325 324 323 322 322 322 320 319 321 320 320 321 321 321 320 322 321 321 320 320 321 320 318 319 319 319 319 319 318
310 312 313 313 314 313 317 317 318 319 321 322 323 322 318 319 322 322 321 320 321 323 324 322 321 321 321 321 321 321 322 320 320 321 320 319 321 323 324 323 322 322 321 321 319 318 318 318 318 318 318 317 317 317
311 312 315 316 315 317 318 319 320 322 321 318 319 321 322 322 323 321 322 323 322 321 320 320 320 320 321 323 325 324 325 324 325 324 323 323 322 325 325 324 323 321 318 317 317 318 317 316 315 314 313 313 313 314
313 314 315 317 318 318 318 320 319 317 318 319 319 321 322 320 322 323 323 324 324 322 320 320 322 322 322 322 321 322 322 322 323 324 323 323 323 323 323 321 320 319 320 318 316 314 313 312 312 312 313 313 312 312
315 315 316 317 318 320 320 319 318 317 318 319 319 320 323 323 322 322 321 321 320 319 318 318 319 319 319 319 320 320 319 319 320 319 318 319 320 320 321 322 320 319 318 314 313 313 313 315 315 315 315 315 316 315
315 315 316 317 318 319 319 318 318 317 318 321 323 321 320 320 319 319 321 321 319 319 319 319 319 318 318 318 317 317 317 316 316 316 316 316 316 316 316 316 315 315 314 313 314 314 314 314 315 317 317 316 316 316
315 317 316 317 315 315 318 320 318 320 322 322 320 319 319 319 320 320 319 318 317 317 318 319 318 317 317 318 318 318 318 317 317 317 316 316 316 316 316 315 315 316 316 317 317 317 317 316 316 315 315 314 315 315
315 314 313 313 317 319 318 319 320 321 321 321 319 318 319 318 318 320 319 319 318 317 316 316 316 316 315 315 315 315 317 318 318 317 316 316 316 315 316 315 315 315 314 315 315 315 314 315 315 314 314 314 314 314